INTELSAT 33E (IS-33E)

Last updated on May 21, 2019, 3:10 a.m. UTC

1 41748U 16053B   19140.82855427  .00000040  00000-0  00000+0 0  9998
2 41748   0.0239  24.7416 0002433  53.4812 158.2304  1.00271006 10303
UTC
Height (km)
Latitude
Longitude
Inclination
Orbital Period
UTC large
Height (km)
Speed (km/s)
/
Latitude / Longitude
Inclination (degrees)
Orbital Period (minutes)
Azimuth
Elevation
Range (km)
Doppler Factor
iOS Compass Heading
iOS Angle

Next 30 passes for location: Hong Kong

Rise time Rise Azimuth (degrees) Set time Set Azimuth (degrees) Duration Max altitude (degrees)

No matching passes for this satellites